Year,Month,Day,Hour,Minute,Value (Times are PST for temperature in C)
2006,03,21,00,00,6.20
2006,03,21,00,01,6.20
2006,03,21,00,02,6.20
2006,03,21,00,03,6.20
2006,03,21,00,04,6.20
2006,03,21,00,05,6.20
2006,03,21,00,06,6.20
2006,03,21,00,07,6.20
2006,03,21,00,08,6.20
2006,03,21,00,09,6.20
2006,03,21,00,10,6.20
2006,03,21,00,11,6.20
2006,03,21,00,12,6.20
2006,03,21,00,13,6.20
2006,03,21,00,14,6.20
2006,03,21,00,15,6.20
2006,03,21,00,16,6.20
2006,03,21,00,17,6.20
2006,03,21,00,18,6.20
2006,03,21,00,19,6.20
2006,03,21,00,20,6.10
2006,03,21,00,21,6.10
2006,03,21,00,22,6.10
2006,03,21,00,23,6.10
2006,03,21,00,24,6.10
2006,03,21,00,25,6.10
2006,03,21,00,26,6.10
2006,03,21,00,27,6.10
2006,03,21,00,28,6.10
2006,03,21,00,29,6.10
2006,03,21,00,30,6.10
2006,03,21,00,31,6.10
2006,03,21,00,32,6.10
2006,03,21,00,33,6.10
2006,03,21,00,34,6.10
2006,03,21,00,35,6.10
2006,03,21,00,36,6.10
2006,03,21,00,37,6.10
2006,03,21,00,38,6.00
2006,03,21,00,39,6.00
2006,03,21,00,40,6.00
2006,03,21,00,41,6.00
2006,03,21,00,42,6.00
2006,03,21,00,43,6.00
2006,03,21,00,44,6.00
2006,03,21,00,45,6.00
2006,03,21,00,46,6.00
2006,03,21,00,47,6.00
2006,03,21,00,48,6.00
2006,03,21,00,49,6.00
2006,03,21,00,50,6.00
2006,03,21,00,51,6.00
2006,03,21,00,52,6.00
2006,03,21,00,53,6.00
2006,03,21,00,54,6.00
2006,03,21,00,55,6.00
2006,03,21,00,56,6.00
2006,03,21,00,57,6.00
2006,03,21,00,58,6.00
2006,03,21,00,59,6.00
2006,03,21,01,00,6.00
2006,03,21,01,01,6.00
2006,03,21,01,02,6.00
2006,03,21,01,03,6.00
2006,03,21,01,04,6.00
2006,03,21,01,05,6.00
2006,03,21,01,06,6.00
2006,03,21,01,07,6.00
2006,03,21,01,08,6.00
2006,03,21,01,09,6.00
2006,03,21,01,10,6.00
2006,03,21,01,11,6.00
2006,03,21,01,12,6.00
2006,03,21,01,13,6.10
2006,03,21,01,14,6.00
2006,03,21,01,15,6.00
2006,03,21,01,16,6.00
2006,03,21,01,17,6.00
2006,03,21,01,18,6.00
2006,03,21,01,19,6.00
2006,03,21,01,20,6.00
2006,03,21,01,21,6.00
2006,03,21,01,22,6.00
2006,03,21,01,23,6.00
2006,03,21,01,24,6.00
2006,03,21,01,25,6.00
2006,03,21,01,26,6.00
2006,03,21,01,27,6.00
2006,03,21,01,28,6.00
2006,03,21,01,29,6.10
2006,03,21,01,30,6.10
2006,03,21,01,31,6.10
2006,03,21,01,32,6.00
2006,03,21,01,33,6.00
2006,03,21,01,34,6.00
2006,03,21,01,35,6.00
2006,03,21,01,36,6.00
2006,03,21,01,37,6.00
2006,03,21,01,38,6.00
2006,03,21,01,39,6.00
2006,03,21,01,40,6.00
2006,03,21,01,41,6.00
2006,03,21,01,42,6.00
2006,03,21,01,43,5.90
2006,03,21,01,44,5.90
2006,03,21,01,45,5.90
2006,03,21,01,46,5.90
2006,03,21,01,47,5.90
2006,03,21,01,48,5.90
2006,03,21,01,49,5.90
2006,03,21,01,50,5.90
2006,03,21,01,51,5.90
2006,03,21,01,52,5.90
2006,03,21,01,53,5.90
2006,03,21,01,54,5.90
2006,03,21,01,55,5.90
2006,03,21,01,56,5.90
2006,03,21,01,57,5.80
2006,03,21,01,58,5.80
2006,03,21,01,59,5.80
2006,03,21,02,00,5.80
2006,03,21,02,01,5.80
2006,03,21,02,02,5.80
2006,03,21,02,03,5.80
2006,03,21,02,04,5.80
2006,03,21,02,05,5.80
2006,03,21,02,06,5.80
2006,03,21,02,07,5.80
2006,03,21,02,08,5.80
2006,03,21,02,09,5.80
2006,03,21,02,10,5.80
2006,03,21,02,11,5.80
2006,03,21,02,12,5.80
2006,03,21,02,13,5.80
2006,03,21,02,14,5.80
2006,03,21,02,15,5.80
2006,03,21,02,16,5.80
2006,03,21,02,17,5.80
2006,03,21,02,18,5.80
2006,03,21,02,19,5.70
2006,03,21,02,20,5.70
2006,03,21,02,21,5.70
2006,03,21,02,22,5.70
2006,03,21,02,23,5.70
2006,03,21,02,24,5.70
2006,03,21,02,25,5.70
2006,03,21,02,26,5.70
2006,03,21,02,27,5.70
2006,03,21,02,28,5.70
2006,03,21,02,29,5.70
2006,03,21,02,30,5.70
2006,03,21,02,31,5.70
2006,03,21,02,32,5.70
2006,03,21,02,33,5.70
2006,03,21,02,34,5.70
2006,03,21,02,35,5.70
2006,03,21,02,36,5.70
2006,03,21,02,37,5.70
2006,03,21,02,38,5.70
2006,03,21,02,39,5.70
2006,03,21,02,40,5.70
2006,03,21,02,41,5.70
2006,03,21,02,42,5.70
2006,03,21,02,43,5.70
2006,03,21,02,44,5.70
2006,03,21,02,45,5.70
2006,03,21,02,46,5.70
2006,03,21,02,47,5.70
2006,03,21,02,48,5.70
2006,03,21,02,49,5.70
2006,03,21,02,50,5.70
2006,03,21,02,51,5.70
2006,03,21,02,52,5.80
2006,03,21,02,53,5.80
2006,03,21,02,54,5.80
2006,03,21,02,55,5.80
2006,03,21,02,56,5.80
2006,03,21,02,57,5.80
2006,03,21,02,58,5.80
2006,03,21,02,59,5.80
2006,03,21,03,00,5.90
2006,03,21,03,01,5.90
2006,03,21,03,02,5.90
2006,03,21,03,03,5.90
2006,03,21,03,04,5.90
2006,03,21,03,05,5.90
2006,03,21,03,06,5.90
2006,03,21,03,07,5.90
2006,03,21,03,08,5.90
2006,03,21,03,09,5.90
2006,03,21,03,10,5.90
2006,03,21,03,11,5.90
2006,03,21,03,12,5.90
2006,03,21,03,13,5.90
2006,03,21,03,14,5.90
2006,03,21,03,15,5.90
2006,03,21,03,16,5.90
2006,03,21,03,17,5.90
2006,03,21,03,18,6.00
2006,03,21,03,19,6.00
2006,03,21,03,20,6.00
2006,03,21,03,21,6.00
2006,03,21,03,22,6.00
2006,03,21,03,23,6.00
2006,03,21,03,24,6.00
2006,03,21,03,25,6.00
2006,03,21,03,26,6.00
2006,03,21,03,27,5.90
2006,03,21,03,28,5.90
2006,03,21,03,29,5.90
2006,03,21,03,30,5.90
2006,03,21,03,31,5.90
2006,03,21,03,32,5.90
2006,03,21,03,33,5.90
2006,03,21,03,34,5.90
2006,03,21,03,35,5.90
2006,03,21,03,36,5.90
2006,03,21,03,37,5.90
2006,03,21,03,38,5.90
2006,03,21,03,39,5.90
2006,03,21,03,40,5.90
2006,03,21,03,41,5.90
2006,03,21,03,42,5.90
2006,03,21,03,43,5.90
2006,03,21,03,44,5.90
2006,03,21,03,45,5.90
2006,03,21,03,46,5.90
2006,03,21,03,47,5.90
2006,03,21,03,48,5.90
2006,03,21,03,49,5.80
2006,03,21,03,50,5.80
2006,03,21,03,51,5.80
2006,03,21,03,52,5.80
2006,03,21,03,53,5.70
2006,03,21,03,54,5.80
2006,03,21,03,55,5.80
2006,03,21,03,56,5.80
2006,03,21,03,57,5.80
2006,03,21,03,58,5.90
2006,03,21,03,59,5.90
2006,03,21,04,00,5.90
2006,03,21,04,01,5.90
2006,03,21,04,02,5.90
2006,03,21,04,03,6.00
2006,03,21,04,04,6.00
2006,03,21,04,05,6.00
2006,03,21,04,06,6.00
2006,03,21,04,07,6.00
2006,03,21,04,08,6.00
2006,03,21,04,09,6.00
2006,03,21,04,10,5.90
2006,03,21,04,11,5.90
2006,03,21,04,12,5.90
2006,03,21,04,13,5.90
2006,03,21,04,14,5.90
2006,03,21,04,15,5.90
2006,03,21,04,16,5.90
2006,03,21,04,17,5.90
2006,03,21,04,18,5.90
2006,03,21,04,19,5.90
2006,03,21,04,20,5.90
2006,03,21,04,21,5.90
2006,03,21,04,22,5.90
2006,03,21,04,23,5.80
2006,03,21,04,24,5.90
2006,03,21,04,25,5.90
2006,03,21,04,26,5.90
2006,03,21,04,27,5.90
2006,03,21,04,28,5.90
2006,03,21,04,29,5.90
2006,03,21,04,30,5.90
2006,03,21,04,31,5.90
2006,03,21,04,32,5.90
2006,03,21,04,33,5.90
2006,03,21,04,34,5.90
2006,03,21,04,35,5.90
2006,03,21,04,36,5.90
2006,03,21,04,37,5.90
2006,03,21,04,38,5.90
2006,03,21,04,39,5.90
2006,03,21,04,40,5.90
2006,03,21,04,41,5.90
2006,03,21,04,42,5.90
2006,03,21,04,43,5.90
2006,03,21,04,44,5.90
2006,03,21,04,45,5.90
2006,03,21,04,46,5.90
2006,03,21,04,47,5.90
2006,03,21,04,48,5.90
2006,03,21,04,49,5.90
2006,03,21,04,50,5.90
2006,03,21,04,51,5.90
2006,03,21,04,52,5.90
2006,03,21,04,53,5.90
2006,03,21,04,54,5.90
2006,03,21,04,55,5.90
2006,03,21,04,56,5.90
2006,03,21,04,57,5.90
2006,03,21,04,58,5.90
2006,03,21,04,59,5.90
2006,03,21,05,00,5.90
2006,03,21,05,01,5.90
2006,03,21,05,02,5.90
2006,03,21,05,03,5.90
2006,03,21,05,04,5.90
2006,03,21,05,05,5.90
2006,03,21,05,06,5.90
2006,03,21,05,07,5.90
2006,03,21,05,08,5.90
2006,03,21,05,09,5.80
2006,03,21,05,10,5.80
2006,03,21,05,11,5.80
2006,03,21,05,12,5.80
2006,03,21,05,13,5.70
2006,03,21,05,14,5.70
2006,03,21,05,15,5.70
2006,03,21,05,16,5.70
2006,03,21,05,17,5.70
2006,03,21,05,18,5.70
2006,03,21,05,19,5.70
2006,03,21,05,20,5.70
2006,03,21,05,21,5.70
2006,03,21,05,22,5.70
2006,03,21,05,23,5.70
2006,03,21,05,24,5.70
2006,03,21,05,25,5.70
2006,03,21,05,26,5.70
2006,03,21,05,27,5.70
2006,03,21,05,28,5.70
2006,03,21,05,29,5.70
2006,03,21,05,30,5.70
2006,03,21,05,31,5.70
2006,03,21,05,32,5.70
2006,03,21,05,33,5.70
2006,03,21,05,34,5.70
2006,03,21,05,35,5.60
2006,03,21,05,36,5.60
2006,03,21,05,37,5.60
2006,03,21,05,38,5.60
2006,03,21,05,39,5.60
2006,03,21,05,40,5.60
2006,03,21,05,41,5.60
2006,03,21,05,42,5.60
2006,03,21,05,43,5.60
2006,03,21,05,44,5.50
2006,03,21,05,45,5.50
2006,03,21,05,46,5.50
2006,03,21,05,47,5.60
2006,03,21,05,48,5.60
2006,03,21,05,49,5.60
2006,03,21,05,50,5.60
2006,03,21,05,51,5.70
2006,03,21,05,52,5.70
2006,03,21,05,53,5.70
2006,03,21,05,54,5.60
2006,03,21,05,55,5.60
2006,03,21,05,56,5.60
2006,03,21,05,57,5.60
2006,03,21,05,58,5.60
2006,03,21,05,59,5.60
2006,03,21,06,00,5.60
2006,03,21,06,01,5.70
2006,03,21,06,02,5.70
2006,03,21,06,03,5.70
2006,03,21,06,04,5.70
2006,03,21,06,05,5.70
2006,03,21,06,06,5.80
2006,03,21,06,07,5.80
2006,03,21,06,08,5.90
2006,03,21,06,09,5.90
2006,03,21,06,10,6.00
2006,03,21,06,11,6.00
2006,03,21,06,12,6.10
2006,03,21,06,13,6.10
2006,03,21,06,14,6.10
2006,03,21,06,15,6.10
2006,03,21,06,16,6.10
2006,03,21,06,17,6.10
2006,03,21,06,18,6.10
2006,03,21,06,19,6.20
2006,03,21,06,20,6.20
2006,03,21,06,21,6.20
2006,03,21,06,22,6.20
2006,03,21,06,23,6.20
2006,03,21,06,24,6.30
2006,03,21,06,25,6.30
2006,03,21,06,26,6.30
2006,03,21,06,27,6.30
2006,03,21,06,28,6.30
2006,03,21,06,29,6.20
2006,03,21,06,30,6.20
2006,03,21,06,31,6.20
2006,03,21,06,32,6.20
2006,03,21,06,33,6.20
2006,03,21,06,34,6.20
2006,03,21,06,35,6.20
2006,03,21,06,36,6.20
2006,03,21,06,37,6.20
2006,03,21,06,38,6.20
2006,03,21,06,39,6.20
2006,03,21,06,40,6.20
2006,03,21,06,41,6.20
2006,03,21,06,42,6.20
2006,03,21,06,43,6.20
2006,03,21,06,44,6.10
2006,03,21,06,45,6.10
2006,03,21,06,46,6.00
2006,03,21,06,47,6.00
2006,03,21,06,48,6.00
2006,03,21,06,49,5.90
2006,03,21,06,50,5.90
2006,03,21,06,51,5.90
2006,03,21,06,52,5.90
2006,03,21,06,53,5.90
2006,03,21,06,54,5.90
2006,03,21,06,55,5.90
2006,03,21,06,56,5.90
2006,03,21,06,57,5.80
2006,03,21,06,58,5.80
2006,03,21,06,59,5.80
2006,03,21,07,00,5.80
2006,03,21,07,01,5.80
2006,03,21,07,02,5.80
2006,03,21,07,03,5.80
2006,03,21,07,04,5.80
2006,03,21,07,05,5.80
2006,03,21,07,06,5.80
2006,03,21,07,07,5.80
2006,03,21,07,08,5.80
2006,03,21,07,09,5.80
2006,03,21,07,10,5.80
2006,03,21,07,11,5.70
2006,03,21,07,12,5.70
2006,03,21,07,13,5.70
2006,03,21,07,14,5.70
2006,03,21,07,15,5.70
2006,03,21,07,16,5.70
2006,03,21,07,17,5.70
2006,03,21,07,18,5.70
2006,03,21,07,19,5.70
2006,03,21,07,20,5.70
2006,03,21,07,21,5.70
2006,03,21,07,22,5.70
2006,03,21,07,23,5.70
2006,03,21,07,24,5.70
2006,03,21,07,25,5.70
2006,03,21,07,26,5.70
2006,03,21,07,27,5.70
2006,03,21,07,28,5.70
2006,03,21,07,29,5.70
2006,03,21,07,30,5.60
2006,03,21,07,31,5.60
2006,03,21,07,32,5.60
2006,03,21,07,33,5.60
2006,03,21,07,34,5.60
2006,03,21,07,35,5.60
2006,03,21,07,36,5.60
2006,03,21,07,37,5.70
2006,03,21,07,38,5.70
2006,03,21,07,39,5.70
2006,03,21,07,40,5.70
2006,03,21,07,41,5.70
2006,03,21,07,42,5.70
2006,03,21,07,43,5.70
2006,03,21,07,44,5.70
2006,03,21,07,45,5.70
2006,03,21,07,46,5.70
2006,03,21,07,47,5.70
2006,03,21,07,48,5.70
2006,03,21,07,49,5.70
2006,03,21,07,50,5.70
2006,03,21,07,51,5.70
2006,03,21,07,52,5.80
2006,03,21,07,53,5.80
2006,03,21,07,54,5.80
2006,03,21,07,55,5.80
2006,03,21,07,56,5.90
2006,03,21,07,57,5.90
2006,03,21,07,58,5.90
2006,03,21,07,59,5.90
2006,03,21,08,00,6.00
2006,03,21,08,01,6.00
2006,03,21,08,02,6.00
2006,03,21,08,03,6.00
2006,03,21,08,04,6.00
2006,03,21,08,05,6.10
2006,03,21,08,06,6.10
2006,03,21,08,07,6.20
2006,03,21,08,08,6.20
2006,03,21,08,09,6.20
2006,03,21,08,10,6.20
2006,03,21,08,11,6.30
2006,03,21,08,12,6.30
2006,03,21,08,13,6.30
2006,03,21,08,14,6.40
2006,03,21,08,15,6.40
2006,03,21,08,16,6.40
2006,03,21,08,17,6.40
2006,03,21,08,18,6.40
2006,03,21,08,19,6.50
2006,03,21,08,20,6.60
2006,03,21,08,21,6.60
2006,03,21,08,22,6.60
2006,03,21,08,23,6.70
2006,03,21,08,24,6.70
2006,03,21,08,25,6.70
2006,03,21,08,26,6.70
2006,03,21,08,27,6.80
2006,03,21,08,28,6.80
2006,03,21,08,29,6.80
2006,03,21,08,30,6.80
2006,03,21,08,31,6.80
2006,03,21,08,32,6.90
2006,03,21,08,33,6.90
2006,03,21,08,34,7.00
2006,03,21,08,35,7.00
2006,03,21,08,36,7.00
2006,03,21,08,37,7.10
2006,03,21,08,38,7.10
2006,03,21,08,39,7.20
2006,03,21,08,40,7.20
2006,03,21,08,41,7.30
2006,03,21,08,42,7.40
2006,03,21,08,43,7.50
2006,03,21,08,44,7.60
2006,03,21,08,45,7.70
2006,03,21,08,46,7.80
2006,03,21,08,47,7.80
2006,03,21,08,48,7.80
2006,03,21,08,49,7.90
2006,03,21,08,50,7.90
2006,03,21,08,51,8.00
2006,03,21,08,52,8.00
2006,03,21,08,53,8.10
2006,03,21,08,54,8.10
2006,03,21,08,55,8.10
2006,03,21,08,56,8.20
2006,03,21,08,57,8.20
2006,03,21,08,58,8.20
2006,03,21,08,59,8.20
2006,03,21,09,00,8.20
2006,03,21,09,01,8.20
2006,03,21,09,02,8.20
2006,03,21,09,03,8.20
2006,03,21,09,04,8.20
2006,03,21,09,05,8.20
2006,03,21,09,06,8.20
2006,03,21,09,07,8.20
2006,03,21,09,08,8.20
2006,03,21,09,09,8.20
2006,03,21,09,10,8.30
2006,03,21,09,11,8.30
2006,03,21,09,12,8.40
2006,03,21,09,13,8.40
2006,03,21,09,14,8.40
2006,03,21,09,15,8.50
2006,03,21,09,16,8.50
2006,03,21,09,17,8.50
2006,03,21,09,18,8.50
2006,03,21,09,19,8.50
2006,03,21,09,20,8.50
2006,03,21,09,21,8.50
2006,03,21,09,22,8.50
2006,03,21,09,23,8.60
2006,03,21,09,24,8.60
2006,03,21,09,25,8.50
2006,03,21,09,26,8.50
2006,03,21,09,27,8.50
2006,03,21,09,28,8.50
2006,03,21,09,29,8.50
2006,03,21,09,30,8.50
2006,03,21,09,31,8.60
2006,03,21,09,32,8.60
2006,03,21,09,33,8.60
2006,03,21,09,34,8.60
2006,03,21,09,35,8.60
2006,03,21,09,36,8.60
2006,03,21,09,37,8.60
2006,03,21,09,38,8.60
2006,03,21,09,39,8.60
2006,03,21,09,40,8.60
2006,03,21,09,41,8.70
2006,03,21,09,42,8.70
2006,03,21,09,43,8.70
2006,03,21,09,44,8.70
2006,03,21,09,45,8.70
2006,03,21,09,46,8.70
2006,03,21,09,47,8.70
2006,03,21,09,48,8.70
2006,03,21,09,49,8.80
2006,03,21,09,50,8.80
2006,03,21,09,51,8.80
2006,03,21,09,52,8.80
2006,03,21,09,53,8.90
2006,03,21,09,54,8.90
2006,03,21,09,55,8.90
2006,03,21,09,56,8.90
2006,03,21,09,57,8.90
2006,03,21,09,58,8.90
2006,03,21,09,59,8.80
2006,03,21,10,00,8.80
2006,03,21,10,01,8.80
2006,03,21,10,02,8.80
2006,03,21,10,03,8.80
2006,03,21,10,04,8.90
2006,03,21,10,05,8.90
2006,03,21,10,06,8.90
2006,03,21,10,07,8.90
2006,03,21,10,08,9.00
2006,03,21,10,09,9.00
2006,03,21,10,10,8.90
2006,03,21,10,11,8.90
2006,03,21,10,12,9.00
2006,03,21,10,13,9.10
2006,03,21,10,14,9.10
2006,03,21,10,15,9.10
2006,03,21,10,16,9.00
2006,03,21,10,17,8.90
2006,03,21,10,18,8.90
2006,03,21,10,19,8.80
2006,03,21,10,20,8.80
2006,03,21,10,21,8.80
2006,03,21,10,22,8.80
2006,03,21,10,23,8.80
2006,03,21,10,24,8.80
2006,03,21,10,25,8.80
2006,03,21,10,26,8.70
2006,03,21,10,27,8.70
2006,03,21,10,28,8.70
2006,03,21,10,29,8.70
2006,03,21,10,30,8.70
2006,03,21,10,31,8.70
2006,03,21,10,32,8.70
2006,03,21,10,33,8.70
2006,03,21,10,34,8.70
2006,03,21,10,35,8.80
2006,03,21,10,36,8.80
2006,03,21,10,37,8.70
2006,03,21,10,38,8.70
2006,03,21,10,39,8.80
2006,03,21,10,40,8.80
2006,03,21,10,41,8.80
2006,03,21,10,42,8.80
2006,03,21,10,43,8.80
2006,03,21,10,44,8.90
2006,03,21,10,45,9.00
2006,03,21,10,46,9.00
2006,03,21,10,47,9.00
2006,03,21,10,48,9.10
2006,03,21,10,49,9.20
2006,03,21,10,50,9.20
2006,03,21,10,51,9.20
2006,03,21,10,52,9.20
2006,03,21,10,53,9.20
2006,03,21,10,54,9.20
2006,03,21,10,55,9.20
2006,03,21,10,56,9.20
2006,03,21,10,57,9.10
2006,03,21,10,58,9.10
2006,03,21,10,59,9.10
2006,03,21,11,00,9.10
2006,03,21,11,01,9.10
2006,03,21,11,02,9.20
2006,03,21,11,03,9.20
2006,03,21,11,04,9.20
2006,03,21,11,05,9.20
2006,03,21,11,06,9.20
2006,03,21,11,07,9.20
2006,03,21,11,08,9.20
2006,03,21,11,09,9.20
2006,03,21,11,10,9.20
2006,03,21,11,11,9.20
2006,03,21,11,12,9.20
2006,03,21,11,13,9.30
2006,03,21,11,14,9.30
2006,03,21,11,15,9.30
2006,03,21,11,16,9.40
2006,03,21,11,17,9.40
2006,03,21,11,18,9.40
2006,03,21,11,19,9.50
2006,03,21,11,20,9.50
2006,03,21,11,21,9.60
2006,03,21,11,22,9.60
2006,03,21,11,23,9.70
2006,03,21,11,24,9.70
2006,03,21,11,25,9.80
2006,03,21,11,26,9.80
2006,03,21,11,27,9.90
2006,03,21,11,28,9.90
2006,03,21,11,29,10.00
2006,03,21,11,30,10.00
2006,03,21,11,31,9.90
2006,03,21,11,32,9.90
2006,03,21,11,33,9.90
2006,03,21,11,34,9.90
2006,03,21,11,35,9.90
2006,03,21,11,36,9.90
2006,03,21,11,37,9.90
2006,03,21,11,38,9.90
2006,03,21,11,39,9.90
2006,03,21,11,40,9.80
2006,03,21,11,41,9.80
2006,03,21,11,42,9.80
2006,03,21,11,43,9.80
2006,03,21,11,44,9.80
2006,03,21,11,45,9.80
2006,03,21,11,46,9.80
2006,03,21,11,47,9.80
2006,03,21,11,48,9.80
2006,03,21,11,49,9.80
2006,03,21,11,50,9.80
2006,03,21,11,51,9.80
2006,03,21,11,52,9.90
2006,03,21,11,53,9.90
2006,03,21,11,54,9.90
2006,03,21,11,55,9.90
2006,03,21,11,56,10.00
2006,03,21,11,57,10.10
2006,03,21,11,58,10.10
2006,03,21,11,59,10.10
2006,03,21,12,00,10.20
2006,03,21,12,01,10.20
2006,03,21,12,02,10.30
2006,03,21,12,03,10.30
2006,03,21,12,04,10.30
2006,03,21,12,05,10.30
2006,03,21,12,06,10.30
2006,03,21,12,07,10.30
2006,03,21,12,08,10.30
2006,03,21,12,09,10.30
2006,03,21,12,10,10.30
2006,03,21,12,11,10.30
2006,03,21,12,12,10.30
2006,03,21,12,13,10.30
2006,03,21,12,14,10.40
2006,03,21,12,15,10.40
2006,03,21,12,16,10.30
2006,03,21,12,17,10.40
2006,03,21,12,18,10.50
2006,03,21,12,19,10.60
2006,03,21,12,20,10.70
2006,03,21,12,21,10.70
2006,03,21,12,22,10.70
2006,03,21,12,23,10.80
2006,03,21,12,24,11.00
2006,03,21,12,25,11.10
2006,03,21,12,26,11.10
2006,03,21,12,27,11.10
2006,03,21,12,28,11.20
2006,03,21,12,29,11.20
2006,03,21,12,30,11.30
2006,03,21,12,31,11.40
2006,03,21,12,32,11.50
2006,03,21,12,33,11.60
2006,03,21,12,34,11.60
2006,03,21,12,35,11.60
2006,03,21,12,36,11.40
2006,03,21,12,37,11.40
2006,03,21,12,38,11.40
2006,03,21,12,39,11.30
2006,03,21,12,40,11.30
2006,03,21,12,41,11.40
2006,03,21,12,42,11.40
2006,03,21,12,43,11.50
2006,03,21,12,44,11.60
2006,03,21,12,45,11.70
2006,03,21,12,46,11.70
2006,03,21,12,47,11.50
2006,03,21,12,48,11.40
2006,03,21,12,49,11.20
2006,03,21,12,50,11.20
2006,03,21,12,51,11.10
2006,03,21,12,52,11.10
2006,03,21,12,53,11.10
2006,03,21,12,54,10.90
2006,03,21,12,55,10.90
2006,03,21,12,56,10.90
2006,03,21,12,57,10.90
2006,03,21,12,58,10.90
2006,03,21,12,59,10.90
2006,03,21,13,00,11.10
2006,03,21,13,01,11.10
2006,03,21,13,02,11.10
2006,03,21,13,03,11.20
2006,03,21,13,04,11.20
2006,03,21,13,05,11.20
2006,03,21,13,06,11.20
2006,03,21,13,07,11.20
2006,03,21,13,08,11.30
2006,03,21,13,09,11.40
2006,03,21,13,10,11.40
2006,03,21,13,11,11.50
2006,03,21,13,12,11.60
2006,03,21,13,13,11.60
2006,03,21,13,14,11.50
2006,03,21,13,15,11.40
2006,03,21,13,16,11.50
2006,03,21,13,17,11.60
2006,03,21,13,18,11.60
2006,03,21,13,19,11.70
2006,03,21,13,20,11.60
2006,03,21,13,21,11.60
2006,03,21,13,22,11.60
2006,03,21,13,23,11.70
2006,03,21,13,24,11.60
2006,03,21,13,25,11.60
2006,03,21,13,26,11.50
2006,03,21,13,27,11.40
2006,03,21,13,28,11.40
2006,03,21,13,29,11.30
2006,03,21,13,30,11.20
2006,03,21,13,31,11.20
2006,03,21,13,32,11.20
2006,03,21,13,33,11.20
2006,03,21,13,34,11.10
2006,03,21,13,35,11.10
2006,03,21,13,36,11.10
2006,03,21,13,37,11.10
2006,03,21,13,38,11.10
2006,03,21,13,39,11.10
2006,03,21,13,40,11.10
2006,03,21,13,41,11.10
2006,03,21,13,42,11.10
2006,03,21,13,43,11.00
2006,03,21,13,44,10.90
2006,03,21,13,45,10.90
2006,03,21,13,46,10.90
2006,03,21,13,47,10.90
2006,03,21,13,48,10.90
2006,03,21,13,49,10.90
2006,03,21,13,50,10.90
2006,03,21,13,51,10.90
2006,03,21,13,52,11.00
2006,03,21,13,53,11.10
2006,03,21,13,54,11.10
2006,03,21,13,55,11.10
2006,03,21,13,56,11.10
2006,03,21,13,57,11.10
2006,03,21,13,58,11.20
2006,03,21,13,59,11.20
2006,03,21,14,00,11.20
2006,03,21,14,01,11.30
2006,03,21,14,02,11.30
2006,03,21,14,03,11.30
2006,03,21,14,04,11.30
2006,03,21,14,05,11.30
2006,03,21,14,06,11.20
2006,03,21,14,07,11.20
2006,03,21,14,08,11.10
2006,03,21,14,09,11.10
2006,03,21,14,10,11.10
2006,03,21,14,11,11.10
2006,03,21,14,12,11.10
2006,03,21,14,13,11.00
2006,03,21,14,14,10.90
2006,03,21,14,15,10.90
2006,03,21,14,16,10.90
2006,03,21,14,17,10.90
2006,03,21,14,18,10.90
2006,03,21,14,19,10.80
2006,03,21,14,20,10.80
2006,03,21,14,21,10.80
2006,03,21,14,22,10.80
2006,03,21,14,23,10.80
2006,03,21,14,24,10.80
2006,03,21,14,25,10.70
2006,03,21,14,26,10.70
2006,03,21,14,27,10.70
2006,03,21,14,28,10.60
2006,03,21,14,29,10.60
2006,03,21,14,30,10.60
2006,03,21,14,31,10.60
2006,03,21,14,32,10.70
2006,03,21,14,33,10.70
2006,03,21,14,34,10.70
2006,03,21,14,35,10.70
2006,03,21,14,36,10.70
2006,03,21,14,37,10.70
2006,03,21,14,38,10.70
2006,03,21,14,39,10.60
2006,03,21,14,40,10.60
2006,03,21,14,41,10.60
2006,03,21,14,42,10.60
2006,03,21,14,43,10.50
2006,03,21,14,44,10.40
2006,03,21,14,45,10.40
2006,03,21,14,46,10.30
2006,03,21,14,47,10.30
2006,03,21,14,48,10.30
2006,03,21,14,49,10.30
2006,03,21,14,50,10.30
2006,03,21,14,51,10.30
2006,03,21,14,52,10.30
2006,03,21,14,53,10.30
2006,03,21,14,54,10.30
2006,03,21,14,55,10.30
2006,03,21,14,56,10.40
2006,03,21,14,57,10.40
2006,03,21,14,58,10.40
2006,03,21,14,59,10.60
2006,03,21,15,00,10.60
2006,03,21,15,01,10.60
2006,03,21,15,02,10.70
2006,03,21,15,03,10.70
2006,03,21,15,04,10.80
2006,03,21,15,05,10.80
2006,03,21,15,06,10.80
2006,03,21,15,07,10.90
2006,03,21,15,08,11.10
2006,03,21,15,09,11.20
2006,03,21,15,10,11.20
2006,03,21,15,11,11.30
2006,03,21,15,12,11.30
2006,03,21,15,13,11.40
2006,03,21,15,14,11.60
2006,03,21,15,15,11.70
2006,03,21,15,16,11.80
2006,03,21,15,17,11.80
2006,03,21,15,18,11.70
2006,03,21,15,19,11.60
2006,03,21,15,20,11.60
2006,03,21,15,21,11.40
2006,03,21,15,22,11.30
2006,03,21,15,23,11.20
2006,03,21,15,24,11.10
2006,03,21,15,25,11.10
2006,03,21,15,26,10.90
2006,03,21,15,27,10.90
2006,03,21,15,28,10.90
2006,03,21,15,29,10.90
2006,03,21,15,30,10.80
2006,03,21,15,31,10.80
2006,03,21,15,32,10.70
2006,03,21,15,33,10.70
2006,03,21,15,34,10.70
2006,03,21,15,35,10.70
2006,03,21,15,36,10.70
2006,03,21,15,37,10.70
2006,03,21,15,38,10.70
2006,03,21,15,39,10.70
2006,03,21,15,40,10.80
2006,03,21,15,41,10.80
2006,03,21,15,42,10.70
2006,03,21,15,43,10.70
2006,03,21,15,44,10.80
2006,03,21,15,45,10.80
2006,03,21,15,46,10.80
2006,03,21,15,47,10.80
2006,03,21,15,48,10.80
2006,03,21,15,49,10.90
2006,03,21,15,50,10.90
2006,03,21,15,51,10.90
2006,03,21,15,52,10.90
2006,03,21,15,53,10.90
2006,03,21,15,54,10.90
2006,03,21,15,55,10.90
2006,03,21,15,56,10.80
2006,03,21,15,57,10.90
2006,03,21,15,58,10.80
2006,03,21,15,59,10.80
2006,03,21,16,00,10.90
2006,03,21,16,01,10.90
2006,03,21,16,02,10.90
2006,03,21,16,03,10.90
2006,03,21,16,04,10.90
2006,03,21,16,05,10.90
2006,03,21,16,06,10.90
2006,03,21,16,07,10.90
2006,03,21,16,08,10.80
2006,03,21,16,09,10.80
2006,03,21,16,10,10.80
2006,03,21,16,11,10.80
2006,03,21,16,12,10.70
2006,03,21,16,13,10.70
2006,03,21,16,14,10.60
2006,03,21,16,15,10.40
2006,03,21,16,16,10.40
2006,03,21,16,17,10.40
2006,03,21,16,18,10.40
2006,03,21,16,19,10.40
2006,03,21,16,20,10.40
2006,03,21,16,21,10.40
2006,03,21,16,22,10.40
2006,03,21,16,23,10.40
2006,03,21,16,24,10.40
2006,03,21,16,25,10.40
2006,03,21,16,26,10.40
2006,03,21,16,27,10.40
2006,03,21,16,28,10.40
2006,03,21,16,29,10.40
2006,03,21,16,30,10.40
2006,03,21,16,31,10.30
2006,03,21,16,32,10.30
2006,03,21,16,33,10.20
2006,03,21,16,34,10.20
2006,03,21,16,35,10.20
2006,03,21,16,36,10.30
2006,03,21,16,37,10.30
2006,03,21,16,38,10.30
2006,03,21,16,39,10.30
2006,03,21,16,40,10.30
2006,03,21,16,41,10.30
2006,03,21,16,42,10.30
2006,03,21,16,43,10.30
2006,03,21,16,44,10.30
2006,03,21,16,45,10.30
2006,03,21,16,46,10.30
2006,03,21,16,47,10.40
2006,03,21,16,48,10.40
2006,03,21,16,49,10.40
2006,03,21,16,50,10.40
2006,03,21,16,51,10.40
2006,03,21,16,52,10.40
2006,03,21,16,53,10.40
2006,03,21,16,54,10.40
2006,03,21,16,55,10.40
2006,03,21,16,56,10.40
2006,03,21,16,57,10.40
2006,03,21,16,58,10.60
2006,03,21,16,59,10.60
2006,03,21,17,00,10.60
2006,03,21,17,01,10.60
2006,03,21,17,02,10.60
2006,03,21,17,03,10.60
2006,03,21,17,04,10.60
2006,03,21,17,05,10.60
2006,03,21,17,06,10.60
2006,03,21,17,07,10.50
2006,03,21,17,08,10.40
2006,03,21,17,09,10.30
2006,03,21,17,10,10.30
2006,03,21,17,11,10.30
2006,03,21,17,12,10.30
2006,03,21,17,13,10.30
2006,03,21,17,14,10.10
2006,03,21,17,15,10.10
2006,03,21,17,16,10.10
2006,03,21,17,17,10.10
2006,03,21,17,18,10.10
2006,03,21,17,19,10.00
2006,03,21,17,20,9.90
2006,03,21,17,21,9.90
2006,03,21,17,22,9.90
2006,03,21,17,23,9.90
2006,03,21,17,24,9.90
2006,03,21,17,25,9.90
2006,03,21,17,26,10.00
2006,03,21,17,27,10.10
2006,03,21,17,28,10.10
2006,03,21,17,29,10.10
2006,03,21,17,30,10.10
2006,03,21,17,31,10.10
2006,03,21,17,32,10.10
2006,03,21,17,33,10.10
2006,03,21,17,34,10.00
2006,03,21,17,35,9.90
2006,03,21,17,36,9.90
2006,03,21,17,37,9.90
2006,03,21,17,38,9.90
2006,03,21,17,39,9.90
2006,03,21,17,40,9.80
2006,03,21,17,41,9.80
2006,03,21,17,42,9.80
2006,03,21,17,43,9.80
2006,03,21,17,44,9.80
2006,03,21,17,45,9.80
2006,03,21,17,46,9.80
2006,03,21,17,47,9.80
2006,03,21,17,48,9.80
2006,03,21,17,49,9.80
2006,03,21,17,50,9.80
2006,03,21,17,51,9.80